Regional Weather Roundup
Issued by NWS

Home | Current Version | Previous Version | Text Only | Print | Product List | Glossary Off
Versions: 1 2 3 4 5 6 7 8 9 10 11 12 13 14 15 16 17 18 19 20 21 22 23 24 25 26 27 28 29 30 31 32 33 34 35 36 37 38 39 40 41 42 43 44 45 46 47 48 49 50

000
ASUS43 KBIS 190110
RWRND

NORTH DAKOTA REGIONAL WEATHER ROUNDUP
NATIONAL WEATHER SERVICE BISMARCK ND
800 PM CDT SAT APR 18 2015

NOTE: "FAIR" INDICATES FEW OR NO CLOUDS BELOW 12,000 FEET WITH NO
SIGNIFICANT WEATHER AND/OR OBSTRUCTIONS TO VISIBILITY.


NDZ001>003-009>011-017-190200-
NORTHWEST NORTH DAKOTA

CITY           SKY/WX    TMP DP  RH WIND       PRES   REMARKS
WILLISTON      CLOUDY    56  27  32 NW24G32   29.98R
MINOT          LGT RAIN  53  41  63 NW23      29.88R
MINOT AFB      CLOUDY    54  43  66 N12       29.88R
$$

NDZ018>021-031>035-040>046-190200-
SOUTHWEST NORTH DAKOTA

CITY           SKY/WX    TMP DP  RH WIND       PRES   REMARKS
BISMARCK       CLOUDY    52  41  66 S12       29.89F
DICKINSON      LGT RAIN  50  46  86 N6        29.93S
GARRISON         N/A     53  46  77 NE3       29.90S
HETTINGER ARPT LGT RAIN  47  43  86 W3        29.94R
$$

NDZ004>008-012>016-024-026-027-054-190200-
NORTHEAST NORTH DAKOTA

CITY           SKY/WX    TMP DP  RH WIND       PRES   REMARKS
GRAND FORKS    CLOUDY    65  29  25 SE7       29.86F
GRND FRKS AFB  CLOUDY    65  28  24 E2        29.87F
DEVILS LAKE    CLOUDY    61  30  31 S9        29.87F
$$

NDZ022-023-025-028>030-036>039-047>053-190200-
SOUTHEAST NORTH DAKOTA

CITY           SKY/WX    TMP DP  RH WIND       PRES   REMARKS
FARGO          CLOUDY    69  28  21 E12       29.85F
JAMESTOWN      CLOUDY    63  29  27 W8        29.86F
$$




USA.gov is the U.S. government's official web portal to all federal, state and local government web resources and services.